Meteo

Previsioni per il volo, messo gentilmente a disposizione da www.datameteo.com

per info sul servizio, contattare info@datameteo.it


Metar LIMZ

Available data for LIMZ from the past 2 hours
LEVALDIGI
TAF
TAF LIMZ 171700Z 1718/1818 VRB05KT 4000 BR BKN040 TEMPO 1718/1804 RA

Gif Infrarosso


Gif Nuvole


Ultima immagine Infrarosso


Ultima immagine Nuvole


Gif Pioggia